QPF
0.00 0.00 0.00 0.00 0.00 0.00 0.00 0.00 0.00 0.00 0.00 0.00 0.00 0.00 0.00 0.00 0.00 0.00 0.00 0.00 0.00 0.00 0.00 0.00 0.00 0.00 0.00 0.00 0.00 0.00 0.00 0.00 0.00 0.00 0.00 0.00 0.00 0.00 0.00 0.00 0.00 0.00 0.00 0.00 0.01
0.00 0.00 0.00 0.00 0.00 0.00 0.00 0.00 0.00 0.00 0.00 0.00 0.00 0.00 0.00 0.00 0.00 0.00 0.00 0.00 0.00 0.00 0.00 0.00 0.00 0.00 0.00 0.00 0.00 0.00 0.00 0.00 0.00 0.00 0.00 0.00 0.00 0.00 0.00 0.00 0.00 0.00 0.00 0.01 0.01
0.00 0.00 0.00 0.00 0.00 0.00 0.00 0.00 0.00 0.00 0.00 0.00 0.00 0.00 0.00 0.00 0.00 0.00 0.00 0.00 0.00 0.00 0.00 0.00 0.00 0.00 0.00 0.00 0.00 0.00 0.00 0.00 0.00 0.00 0.00 0.00 0.00 0.00 0.00 0.00 0.00 0.00 0.00 0.01 0.02
0.00 0.00 0.00 0.00 0.00 0.00 0.00 0.00 0.00 0.00 0.00 0.00 0.00 0.00 0.00 0.00 0.00 0.00 0.00 0.00 0.00 0.00 0.00 0.00 0.00 0.00 0.00 0.00 0.00 0.00 0.00 0.00 0.00 0.00 0.00 0.00 0.00 0.00 0.00 0.00 0.00 0.00 0.00 0.02 0.04
0.00 0.00 0.00 0.00 0.00 0.00 0.00 0.00 0.00 0.00 0.00 0.00 0.00 0.00 0.00 0.00 0.00 0.00 0.00 0.00 0.00 0.00 0.00 0.00 0.00 0.00 0.00 0.00 0.00 0.00 0.00 0.00 0.00 0.00 0.00 0.00 0.00 0.00 0.00 0.00 0.00 0.00 0.01 0.04 0.04
0.00 0.00 0.00 0.00 0.00 0.00 0.00 0.00 0.00 0.00 0.00 0.00 0.00 0.00 0.00 0.00 0.00 0.00 0.00 0.00 0.00 0.00 0.00 0.00 0.00 0.00 0.00 0.00 0.00 0.00 0.00 0.00 0.00 0.00 0.00 0.00 0.00 0.00 0.00 0.00 0.00 0.00 0.01 0.02 0.01
0.00 0.00 0.00 0.00 0.00 0.00 0.00 0.00 0.00 0.00 0.00 0.00 0.00 0.00 0.00 0.00 0.00 0.00 0.00 0.00 0.00 0.00 0.00 0.00 0.00 0.00 0.00 0.00 0.00 0.00 0.00 0.00 0.00 0.00 0.00 0.00 0.00 0.00 0.00 0.00 0.01 0.00 0.01 0.00 0.00
0.00 0.00 0.00 0.00 0.00 0.00 0.00 0.00 0.00 0.00 0.00 0.00 0.00 0.00 0.00 0.00 0.00 0.00 0.00 0.00 0.00 0.00 0.00 0.00 0.00 0.00 0.00 0.00 0.00 0.00 0.00 0.00 0.00 0.00 0.00 0.00 0.00 0.00 0.00 0.00 0.01 0.03 0.00 0.00 0.00
0.00 0.00 0.00 0.00 0.00 0.00 0.00 0.00 0.00 0.00 0.00 0.00 0.00 0.00 0.00 0.00 0.00 0.00 0.00 0.00 0.00 0.00 0.00 0.00 0.00 0.00 0.00 0.00 0.00 0.00 0.00 0.00 0.00 0.00 0.00 0.00 0.00 0.00 0.00 0.00 0.00 0.01 0.00 0.00 0.00
0.00 0.00 0.00 0.00 0.00 0.00 0.00 0.00 0.00 0.00 0.00 0.00 0.00 0.00 0.00 0.00 0.00 0.00 0.00 0.00 0.00 0.00 0.00 0.00 0.00 0.00 0.00 0.00 0.00 0.00 0.00 0.00 0.00 0.00 0.00 0.00 0.00 0.00 0.00 0.00 0.00 0.00 0.00 0.00 0.00
0.00 0.00 0.00 0.00 0.00 0.00 0.00 0.00 0.00 0.00 0.00 0.00 0.00 0.00 0.00 0.00 0.00 0.00 0.00 0.00 0.00 0.00 0.00 0.00 0.00 0.00 0.00 0.00 0.00 0.00 0.00 0.00 0.00 0.00 0.00 0.00 0.00 0.00 0.00 0.00 0.00 0.00 0.00 0.00 0.00
0.00 0.00 0.00 0.00 0.00 0.00 0.00 0.00 0.00 0.00 0.00 0.00 0.00 0.00 0.00 0.00 0.00 0.00 0.00 0.00 0.00 0.00 0.00 0.00 0.00 0.00 0.00 0.00 0.00 0.00 0.00 0.00 0.00 0.00 0.00 0.00 0.00 0.00 0.00 0.00 0.00 0.00 0.00 0.00 0.00
0.00 0.00 0.00 0.00 0.00 0.00 0.00 0.00 0.00 0.00 0.00 0.00 0.00 0.00 0.00 0.00 0.00 0.00 0.00 0.00 0.00 0.00 0.00 0.00 0.00 0.00 0.00 0.00 0.00 0.00 0.00 0.00 0.00 0.00 0.00 0.00 0.00 0.00 0.00 0.00 0.00 0.00 0.00 0.00 0.00
0.00 0.00 0.00 0.00 0.00 0.00 0.00 0.00 0.00 0.00 0.00 0.00 0.00 0.00 0.00 0.00 0.00 0.00 0.00 0.00 0.00 0.00 0.00 0.00 0.00 0.00 0.00 0.00 0.00 0.00 0.00 0.00 0.00 0.00 0.00 0.00 0.00 0.00 0.00 0.00 0.00 0.00 0.00 0.00 0.00
0.00 0.00 0.00 0.00 0.00 0.00 0.00 0.00 0.00 0.00 0.00 0.00 0.00 0.00 0.00 0.00 0.00 0.00 0.00 0.00 0.00 0.00 0.00 0.00 0.00 0.00 0.00 0.00 0.00 0.00 0.00 0.00 0.00 0.00 0.00 0.00 0.00 0.00 0.00 0.00 0.00 0.00 0.00 0.00 0.00
0.00 0.00 0.01 0.01 0.00 0.00 0.00 0.00 0.00 0.00 0.00 0.00 0.00 0.00 0.00 0.00 0.00 0.00 0.00 0.00 0.00 0.00 0.00 0.00 0.00 0.00 0.00 0.00 0.00 0.00 0.00 0.00 0.00 0.00 0.00 0.00 0.00 0.00 0.00 0.00 0.00 0.00 0.00 0.00 0.00
0.00 0.00 0.01 0.00 0.00 0.00 0.00 0.00 0.00 0.00 0.00 0.00 0.00 0.00 0.00 0.00 0.00 0.00 0.00 0.00 0.00 0.00 0.00 0.00 0.00 0.00 0.00 0.00 0.00 0.00 0.00 0.00 0.00 0.00 0.00 0.00 0.00 0.00 0.00 0.00 0.00 0.00 0.00 0.00 0.00
0.01 0.01 0.03 0.01 0.00 0.00 0.00 0.01 0.00 0.00 0.00 0.00 0.00 0.00 0.00 0.00 0.00 0.00 0.00 0.00 0.00 0.00 0.00 0.00 0.00 0.00 0.00 0.00 0.00 0.00 0.00 0.00 0.00 0.00 0.00 0.00 0.00 0.00 0.00 0.00 0.00 0.00 0.00 0.00 0.00
0.03 0.03 0.02 0.01 0.00 0.00 0.01 0.01 0.00 0.00 0.00 0.00 0.00 0.00 0.00 0.00 0.00 0.00 0.00 0.00 0.00 0.00 0.00 0.00 0.00 0.00 0.00 0.00 0.00 0.00 0.00 0.00 0.00 0.00 0.00 0.00 0.00 0.00 0.00 0.00 0.00 0.00 0.00 0.00 0.00
0.02 0.03 0.01 0.01 0.01 0.01 0.01 0.00 0.00 0.00 0.00 0.00 0.00 0.00 0.00 0.00 0.00 0.00 0.00 0.00 0.00 0.00 0.00 0.00 0.00 0.00 0.00 0.00 0.00 0.00 0.00 0.00 0.00 0.00 0.00 0.00 0.00 0.00 0.00 0.00 0.00 0.00 0.00 0.00 0.00
0.02 0.02 0.00 0.01 0.04 0.01 0.00 0.00 0.00 0.00 0.00 0.00 0.00 0.00 0.00 0.00 0.00 0.00 0.00 0.00 0.00 0.00 0.00 0.00 0.00 0.00 0.00 0.00 0.00 0.00 0.00 0.00 0.00 0.00 0.00 0.00 0.00 0.00 0.00 0.00 0.00 0.00 0.00 0.00 0.00
0.02 0.01 0.02 0.02 0.02 0.00 0.00 0.00 0.00 0.00 0.00 0.00 0.00 0.00 0.00 0.00 0.00 0.00 0.00 0.00 0.00 0.00 0.00 0.00 0.00 0.00 0.00 0.00 0.00 0.00 0.00 0.00 0.00 0.00 0.00 0.00 0.00 0.00 0.00 0.00 0.00 0.00 0.00 0.00 0.00
0.02 0.01 0.05 0.05 0.01 0.00 0.00 0.00 0.00 0.00 0.00 0.00 0.00 0.00 0.00 0.00 0.00 0.00 0.00 0.00 0.00 0.00 0.00 0.00 0.00 0.00 0.00 0.00 0.00 0.00 0.00 0.00 0.00 0.00 0.00 0.00 0.00 0.00 0.00 0.00 0.00 0.00 0.00 0.00 0.00
0.01 0.01 0.03 0.05 0.00 0.00 0.00 0.00 0.00 0.00 0.00 0.00 0.00 0.00 0.00 0.00 0.00 0.00 0.00 0.00 0.00 0.00 0.00 0.00 0.00 0.00 0.00 0.00 0.00 0.00 0.00 0.00 0.00 0.00 0.00 0.00 0.00 0.00 0.00 0.00 0.00 0.00 0.00 0.00 0.00
0.00 0.01 0.00 0.01 0.00 0.00 0.00 0.00 0.00 0.00 0.00 0.00 0.00 0.00 0.00 0.00 0.00 0.00 0.00 0.00 0.00 0.00 0.00 0.00 0.00 0.00 0.00 0.00 0.00 0.00 0.00 0.00 0.00 0.00 0.00 0.00 0.00 0.00 0.00 0.00 0.00 0.00 0.00 0.00 0.00
0.00 0.00 0.00 0.00 0.00 0.00 0.00 0.00 0.00 0.00 0.00 0.00 0.00 0.00 0.00 0.00 0.00 0.00 0.00 0.00 0.00 0.00 0.00 0.00 0.00 0.00 0.00 0.00 0.00 0.00 0.00 0.00 0.00 0.00 0.00 0.00 0.00 0.00 0.00 0.00 0.00 0.00 0.00 0.00 0.00
0.00 0.00 0.00 0.00 0.00 0.00 0.00 0.00 0.00 0.00 0.00 0.00 0.00 0.00 0.00 0.00 0.00 0.00 0.00 0.00 0.00 0.00 0.00 0.00 0.00 0.00 0.00 0.00 0.00 0.00 0.00 0.00 0.00 0.00 0.00 0.00 0.00 0.00 0.00 0.00 0.00 0.00 0.00 0.00 0.00
MSLP
1022.10 1022.03 1022.02 1021.94 1021.76 1021.63 1021.32 1021.02 1020.67 1020.30 1019.86 1019.46 1018.92 1018.46 1017.96 1017.49 1016.73 1015.96 1013.79 1013.21 1013.18 1013.47 1013.90 1013.21 1012.74 1012.37 1012.21 1011.55 1011.36 1010.98 1009.47 1008.22 1008.25 1008.45 1008.52 1009.54 1009.50 1010.25 1010.48 1009.96 1010.37 1010.86 1011.02 1011.73 1013.31
1022.08 1021.88 1021.68 1021.59 1021.60 1021.35 1021.04 1020.79 1020.43 1020.12 1019.69 1019.25 1018.84 1018.28 1017.74 1017.25 1016.06 1014.13 1012.99 1013.15 1013.29 1013.37 1013.05 1012.47 1011.92 1011.88 1011.11 1010.93 1010.95 1010.36 1008.97 1008.19 1008.53 1008.60 1008.79 1009.41 1009.44 1009.73 1010.14 1010.12 1010.10 1011.07 1012.02 1012.77 1013.48
1022.17 1021.86 1021.58 1021.35 1021.19 1021.04 1020.78 1020.44 1020.31 1019.90 1019.46 1019.21 1018.68 1018.13 1017.51 1017.04 1015.00 1012.35 1012.88 1013.19 1013.34 1013.29 1012.66 1012.27 1011.85 1011.53 1010.63 1010.58 1010.43 1009.89 1009.07 1008.76 1008.90 1009.21 1009.26 1009.35 1009.52 1009.79 1009.59 1009.30 1009.74 1010.73 1012.26 1013.26 1013.98
1022.04 1021.72 1021.50 1021.20 1020.97 1020.70 1020.54 1020.22 1020.04 1019.72 1019.34 1019.11 1018.65 1018.12 1017.14 1016.18 1013.64 1012.34 1012.90 1012.95 1013.24 1012.90 1012.55 1012.00 1011.60 1011.00 1010.20 1009.89 1009.98 1009.83 1009.33 1009.39 1009.42 1009.89 1009.66 1009.34 1009.79 1009.67 1009.89 1009.85 1010.72 1011.05 1012.44 1013.34 1014.43
1021.86 1021.61 1021.27 1021.06 1020.76 1020.46 1020.21 1020.01 1019.72 1019.48 1019.21 1018.96 1018.66 1018.13 1016.94 1015.00 1012.73 1012.67 1012.95 1012.90 1012.94 1012.87 1012.08 1011.50 1011.01 1010.43 1009.79 1009.80 1009.99 1009.90 1009.51 1009.76 1009.99 1010.04 1009.92 1010.01 1009.71 1009.73 1009.91 1010.76 1011.09 1011.79 1012.94 1013.90 1014.63
1021.66 1021.52 1021.23 1020.78 1020.55 1020.11 1019.92 1019.77 1019.46 1019.25 1019.01 1018.82 1018.57 1018.34 1016.95 1014.27 1012.28 1012.52 1012.66 1012.60 1012.23 1012.00 1011.65 1011.22 1010.58 1010.49 1010.10 1009.83 1009.77 1009.87 1009.85 1009.69 1009.68 1009.56 1009.58 1009.60 1009.65 1009.67 1010.30 1011.11 1011.56 1012.41 1013.11 1014.02 1014.65
1021.38 1021.25 1021.01 1020.79 1020.29 1019.95 1019.61 1019.34 1019.20 1018.97 1018.77 1018.52 1018.41 1017.91 1016.33 1013.30 1012.08 1012.32 1012.61 1012.03 1011.95 1011.54 1011.16 1010.95 1010.87 1010.58 1010.19 1009.68 1010.03 1009.81 1009.30 1009.37 1009.30 1009.22 1009.08 1009.30 1008.82 1008.85 1009.90 1010.96 1011.54 1012.34 1013.42 1013.60 1014.24
1021.23 1021.06 1020.78 1020.55 1020.24 1019.63 1019.21 1019.03 1018.69 1018.70 1018.39 1018.17 1017.98 1017.42 1014.43 1012.34 1012.24 1012.34 1012.00 1011.73 1011.83 1011.61 1011.58 1011.12 1010.97 1010.56 1010.22 1010.11 1009.72 1009.11 1008.95 1007.94 1008.63 1009.07 1009.35 1009.46 1007.70 1008.72 1009.87 1010.54 1011.48 1012.09 1012.75 1013.35 1013.75
1020.81 1020.69 1020.56 1020.23 1019.86 1019.46 1018.86 1018.58 1018.18 1018.28 1018.17 1018.02 1017.54 1016.65 1012.98 1012.24 1011.88 1010.92 1011.26 1010.87 1011.09 1011.37 1011.48 1011.29 1010.82 1010.22 1010.24 1009.52 1008.80 1008.48 1007.48 1007.96 1008.04 1008.54 1008.62 1008.86 1007.76 1008.56 1009.68 1010.25 1011.01 1011.72 1012.28 1013.01 1013.84
1020.44 1020.33 1020.28 1020.00 1019.65 1019.17 1018.72 1018.02 1017.36 1017.94 1017.87 1017.59 1016.86 1016.14 1012.42 1010.91 1010.48 1010.48 1010.78 1010.67 1010.46 1010.78 1011.07 1010.87 1010.15 1009.69 1009.25 1008.72 1007.59 1007.43 1007.65 1007.81 1007.69 1008.10 1008.43 1007.91 1007.55 1007.98 1009.16 1009.74 1010.28 1011.14 1011.89 1012.66 1013.30
1019.85 1019.89 1020.01 1019.73 1019.55 1019.02 1018.59 1017.09 1016.90 1016.85 1016.54 1014.51 1013.36 1012.26 1011.38 1010.78 1010.58 1010.09 1010.22 1010.36 1010.12 1010.09 1009.69 1009.85 1009.33 1008.56 1008.07 1008.36 1008.27 1007.85 1007.86 1007.58 1007.53 1007.91 1007.94 1007.18 1007.19 1007.25 1008.56 1009.25 1009.72 1010.52 1011.32 1012.04 1012.79
1019.41 1019.56 1019.54 1019.67 1019.39 1018.83 1018.77 1016.97 1016.51 1017.00 1014.97 1013.35 1012.66 1011.83 1011.13 1011.26 1010.28 1009.65 1009.86 1009.43 1009.40 1009.02 1009.30 1009.51 1008.54 1008.15 1008.63 1008.73 1008.77 1008.41 1008.03 1007.61 1007.61 1007.82 1007.81 1006.90 1006.70 1007.07 1007.92 1008.69 1008.78 1009.39 1010.26 1011.06 1011.70
1019.10 1019.22 1019.28 1019.26 1019.26 1018.78 1018.15 1016.72 1016.86 1016.63 1015.00 1011.81 1010.97 1010.33 1009.96 1010.64 1009.70 1008.73 1009.07 1008.41 1008.38 1008.43 1008.67 1008.18 1008.11 1008.55 1008.74 1008.65 1008.54 1008.26 1008.08 1007.84 1007.76 1007.59 1007.28 1007.20 1006.30 1006.60 1007.28 1007.87 1008.18 1008.56 1009.17 1009.87 1010.29
1018.69 1018.94 1019.02 1019.05 1019.38 1017.68 1017.18 1016.78 1016.50 1016.73 1014.44 1010.57 1009.76 1008.70 1009.10 1009.00 1008.62 1008.11 1008.18 1007.88 1008.00 1007.77 1008.09 1008.09 1007.96 1008.62 1008.63 1008.34 1008.34 1007.85 1008.12 1008.26 1007.99 1007.77 1006.54 1007.22 1005.41 1005.77 1006.21 1006.76 1007.30 1007.66 1008.13 1008.59 1009.35
1018.29 1018.65 1018.82 1018.76 1018.19 1017.28 1016.67 1016.68 1016.60 1016.48 1012.98 1008.70 1008.68 1008.38 1008.08 1007.66 1006.62 1006.99 1007.42 1007.66 1007.00 1007.43 1008.16 1007.61 1007.91 1008.25 1008.14 1007.87 1008.25 1007.92 1008.53 1008.40 1008.18 1007.72 1007.31 1006.82 1006.00 1004.74 1005.66 1005.36 1005.58 1006.41 1006.99 1007.57 1008.13
1017.61 1018.26 1018.54 1018.30 1018.03 1017.15 1016.89 1016.73 1016.43 1015.29 1010.62 1007.97 1008.10 1007.82 1007.95 1007.38 1006.77 1006.50 1006.83 1007.33 1006.79 1007.17 1007.53 1007.06 1008.01 1007.95 1007.60 1008.08 1008.22 1008.52 1008.56 1008.55 1008.42 1007.95 1007.11 1006.62 1006.25 1004.24 1004.18 1004.63 1004.87 1005.16 1005.73 1006.44 1007.14
1017.24 1017.67 1018.11 1017.40 1016.63 1016.67 1016.79 1016.33 1015.41 1012.37 1009.01 1007.49 1007.21 1007.35 1006.95 1006.31 1006.34 1005.95 1005.68 1006.11 1005.89 1006.52 1006.53 1007.02 1007.21 1007.59 1007.91 1007.77 1008.42 1008.34 1008.04 1007.61 1007.90 1007.54 1006.89 1007.07 1006.31 1004.77 1004.57 1004.77 1004.92 1004.98 1005.37 1005.71 1006.01
1016.64 1017.09 1017.33 1017.30 1016.68 1016.97 1016.51 1015.92 1012.86 1008.75 1008.17 1007.23 1006.84 1007.01 1006.29 1005.75 1005.48 1005.50 1005.36 1005.33 1005.47 1005.49 1005.57 1005.92 1006.37 1006.93 1007.20 1007.10 1006.99 1007.51 1007.47 1007.13 1007.08 1007.24 1007.02 1007.40 1005.70 1004.26 1004.63 1004.74 1004.86 1005.13 1005.24 1005.46 1005.56
1016.26 1016.62 1016.92 1016.91 1016.67 1017.09 1016.08 1013.93 1009.47 1008.25 1007.72 1007.23 1006.89 1006.51 1006.35 1005.45 1004.90 1004.99 1004.68 1004.35 1004.50 1004.80 1005.00 1005.18 1005.54 1006.48 1006.99 1007.09 1007.11 1007.56 1007.55 1007.77 1007.84 1008.61 1007.78 1006.36 1005.51 1004.68 1004.60 1004.61 1004.68 1004.59 1004.72 1004.87 1005.27
1015.57 1016.04 1015.73 1016.12 1016.44 1016.88 1015.00 1011.01 1008.91 1007.70 1007.44 1006.97 1006.37 1005.65 1005.62 1005.15 1004.91 1004.46 1004.41 1004.00 1004.14 1004.57 1004.78 1005.29 1005.54 1006.35 1007.04 1007.35 1007.57 1007.15 1007.23 1007.75 1007.74 1007.69 1007.05 1005.90 1005.43 1004.31 1004.26 1004.26 1004.46 1004.30 1004.39 1004.69 1005.14
1015.22 1015.25 1013.83 1015.12 1016.20 1015.85 1012.34 1009.20 1008.53 1007.49 1007.29 1006.96 1006.32 1005.89 1005.42 1004.91 1004.55 1004.07 1003.63 1003.90 1003.81 1004.45 1004.79 1005.03 1005.25 1006.55 1006.94 1006.55 1006.01 1007.14 1006.86 1007.06 1007.26 1007.33 1006.87 1006.08 1004.96 1004.48 1004.14 1004.17 1004.22 1004.28 1004.56 1004.66 1004.94
1013.72 1013.40 1012.39 1013.66 1015.06 1013.50 1010.85 1008.48 1008.23 1007.14 1007.21 1006.95 1006.88 1006.31 1005.66 1005.33 1004.54 1003.90 1003.24 1003.37 1003.53 1003.84 1004.32 1004.71 1005.21 1005.39 1005.76 1006.07 1006.26 1005.83 1005.69 1006.22 1006.42 1006.85 1006.95 1006.47 1005.24 1004.42 1004.16 1004.29 1004.39 1004.35 1004.63 1004.85 1005.14
1011.97 1012.70 1012.46 1012.40 1012.09 1011.99 1010.12 1009.29 1008.11 1007.28 1006.65 1006.77 1006.58 1006.42 1006.01 1005.44 1004.90 1003.93 1003.69 1003.50 1003.62 1003.67 1003.64 1004.55 1004.88 1005.03 1005.45 1006.37 1006.38 1005.69 1005.66 1005.84 1006.21 1006.64 1006.08 1005.84 1004.81 1004.37 1004.20 1004.19 1004.20 1004.26 1004.38 1004.88 1005.20
1010.96 1011.35 1011.65 1011.54 1010.06 1009.74 1009.28 1008.72 1007.87 1007.42 1006.91 1006.64 1006.33 1006.33 1006.24 1005.53 1004.85 1004.27 1004.10 1004.17 1004.02 1003.84 1003.87 1004.43 1004.23 1004.36 1004.15 1004.20 1004.60 1005.05 1005.15 1005.39 1005.48 1005.53 1005.34 1004.70 1004.07 1003.55 1003.47 1003.44 1003.64 1003.95 1004.33 1004.81 1005.16
1008.67 1007.73 1006.95 1007.69 1008.50 1007.60 1008.48 1007.64 1007.37 1006.66 1006.58 1006.58 1006.22 1006.19 1006.02 1005.63 1005.12 1004.69 1004.49 1004.58 1004.73 1004.67 1004.30 1004.22 1003.79 1004.27 1004.23 1004.13 1004.08 1004.25 1004.18 1004.39 1004.70 1004.74 1004.42 1004.00 1003.28 1002.99 1003.12 1003.14 1003.39 1004.34 1004.91 1005.16 1005.51
1006.14 1005.22 1005.59 1005.89 1006.78 1006.24 1005.92 1005.88 1006.01 1005.94 1005.21 1005.15 1005.40 1005.72 1005.97 1005.87 1005.62 1005.20 1005.00 1004.81 1004.30 1004.98 1004.42 1004.21 1003.90 1004.17 1004.32 1004.36 1004.48 1004.18 1003.90 1003.89 1004.06 1003.90 1003.67 1003.53 1002.90 1003.05 1003.27 1004.05 1004.48 1005.02 1005.46 1005.87 1006.50
1004.73 1004.60 1004.14 1004.20 1005.10 1005.71 1004.87 1004.88 1005.22 1005.40 1005.11 1005.05 1005.45 1005.63 1005.87 1005.76 1006.21 1006.46 1006.23 1005.75 1005.28 1004.86 1004.56 1004.40 1004.17 1004.54 1004.30 1004.90 1004.84 1004.56 1003.68 1003.46 1003.50 1003.54 1003.25 1002.63 1002.50 1002.75 1003.27 1003.93 1004.66 1005.73 1006.34 1006.93 1007.57
Thickness
5637 5639 5640 5642 5644 5646 5650 5654 5658 5661 5664 5667 5671 5673 5675 5676 5680 5685 5695 5698 5694 5687 5679 5677 5673 5670 5665 5661 5663 5663 5653 5655 5657 5657 5663 5665 5664 5666 5668 5671 5673 5672 5674 5674 5664
5628 5631 5634 5637 5638 5642 5646 5649 5653 5657 5660 5664 5666 5670 5672 5675 5682 5690 5699 5694 5690 5684 5680 5673 5668 5666 5662 5660 5657 5653 5656 5661 5669 5670 5665 5665 5667 5667 5663 5663 5670 5666 5664 5664 5661
5620 5623 5626 5630 5633 5636 5640 5645 5646 5651 5656 5658 5662 5666 5669 5671 5684 5699 5696 5690 5686 5681 5680 5676 5672 5664 5660 5661 5657 5658 5652 5665 5666 5668 5667 5665 5664 5668 5666 5667 5672 5664 5655 5653 5650
5613 5617 5620 5622 5626 5632 5634 5639 5642 5645 5651 5652 5656 5660 5667 5672 5678 5698 5692 5689 5683 5680 5676 5671 5665 5659 5659 5656 5663 5650 5662 5661 5662 5660 5662 5663 5663 5662 5663 5665 5664 5665 5654 5649 5640
5604 5609 5614 5617 5621 5624 5629 5632 5637 5641 5644 5647 5650 5654 5664 5671 5683 5690 5686 5685 5680 5676 5673 5669 5662 5663 5658 5660 5658 5650 5657 5656 5655 5655 5658 5659 5659 5657 5660 5657 5660 5654 5644 5635 5632
5596 5600 5605 5611 5615 5621 5623 5627 5630 5635 5639 5641 5644 5647 5656 5662 5691 5686 5683 5682 5681 5678 5673 5672 5667 5666 5659 5658 5655 5657 5654 5655 5657 5657 5659 5656 5656 5659 5656 5652 5649 5641 5635 5628 5626
5588 5592 5597 5601 5609 5614 5620 5622 5625 5628 5633 5637 5639 5642 5650 5667 5686 5683 5680 5682 5680 5679 5671 5675 5670 5661 5661 5656 5659 5657 5653 5655 5656 5659 5658 5660 5656 5657 5659 5650 5645 5638 5628 5631 5626
5576 5583 5588 5594 5599 5608 5614 5618 5620 5623 5628 5632 5635 5639 5657 5680 5680 5678 5680 5679 5678 5677 5671 5674 5670 5661 5656 5659 5656 5654 5656 5654 5657 5655 5653 5650 5653 5660 5657 5650 5640 5639 5635 5631 5628
5567 5572 5578 5584 5592 5599 5608 5613 5617 5619 5622 5626 5633 5636 5659 5676 5675 5685 5681 5677 5676 5673 5670 5669 5666 5659 5653 5648 5649 5655 5654 5647 5651 5659 5656 5650 5653 5659 5656 5650 5643 5640 5638 5633 5626
5558 5562 5566 5574 5581 5590 5598 5608 5614 5613 5617 5620 5629 5630 5662 5673 5680 5681 5681 5679 5673 5668 5661 5660 5661 5653 5653 5651 5639 5649 5648 5650 5647 5655 5652 5653 5657 5663 5656 5653 5649 5644 5638 5634 5630
5550 5554 5556 5563 5570 5579 5588 5605 5613 5615 5618 5643 5651 5657 5663 5672 5676 5675 5678 5672 5672 5666 5656 5661 5652 5648 5658 5658 5657 5658 5652 5649 5657 5660 5653 5660 5660 5668 5659 5654 5650 5647 5642 5638 5633
5540 5543 5548 5550 5559 5570 5573 5591 5599 5599 5618 5638 5643 5651 5659 5658 5658 5669 5675 5667 5662 5656 5660 5652 5649 5666 5660 5656 5649 5650 5649 5651 5658 5661 5657 5664 5665 5669 5661 5656 5663 5658 5652 5646 5644
5527 5532 5535 5541 5547 5557 5565 5581 5585 5590 5604 5639 5647 5654 5656 5653 5655 5667 5670 5673 5663 5657 5655 5654 5660 5661 5653 5650 5647 5651 5647 5650 5649 5660 5666 5658 5665 5668 5669 5667 5669 5670 5666 5661 5658
5514 5517 5524 5529 5536 5553 5559 5570 5577 5579 5596 5637 5641 5656 5655 5659 5652 5673 5675 5671 5661 5656 5658 5656 5667 5652 5649 5649 5654 5646 5659 5653 5652 5649 5652 5660 5659 5671 5674 5669 5668 5671 5671 5670 5665
5501 5503 5509 5517 5530 5541 5551 5556 5564 5571 5589 5644 5638 5656 5659 5655 5673 5667 5678 5666 5662 5656 5653 5652 5652 5646 5646 5653 5656 5653 5655 5653 5653 5651 5653 5657 5658 5680 5676 5676 5680 5678 5677 5677 5676
5487 5489 5495 5507 5517 5526 5534 5542 5551 5562 5583 5628 5635 5638 5639 5647 5657 5666 5663 5667 5674 5658 5657 5663 5659 5656 5659 5655 5656 5655 5651 5650 5651 5651 5641 5655 5654 5676 5683 5681 5684 5688 5687 5685 5681
5465 5474 5481 5495 5512 5514 5521 5531 5543 5563 5612 5624 5628 5631 5638 5642 5647 5656 5659 5654 5654 5638 5642 5651 5652 5657 5656 5650 5649 5650 5647 5637 5629 5634 5638 5651 5649 5667 5682 5683 5684 5684 5685 5686 5688
5445 5454 5466 5480 5492 5497 5508 5515 5542 5598 5601 5619 5625 5624 5629 5644 5648 5650 5652 5648 5660 5659 5651 5641 5632 5649 5659 5656 5653 5649 5652 5640 5623 5628 5641 5642 5645 5671 5683 5686 5687 5684 5685 5684 5686
5424 5434 5446 5464 5474 5479 5494 5513 5567 5586 5597 5602 5612 5613 5614 5635 5646 5644 5649 5655 5662 5665 5647 5644 5644 5656 5654 5657 5658 5641 5638 5654 5635 5623 5628 5652 5662 5677 5680 5677 5680 5683 5684 5684 5683
5415 5417 5438 5449 5455 5458 5483 5535 5563 5584 5588 5598 5599 5620 5610 5620 5628 5639 5641 5658 5656 5663 5666 5650 5635 5649 5645 5649 5646 5648 5655 5631 5637 5616 5619 5647 5647 5657 5666 5670 5673 5679 5682 5683 5681
5404 5403 5439 5438 5434 5439 5484 5544 5558 5574 5578 5585 5595 5602 5613 5615 5627 5633 5643 5651 5662 5654 5660 5656 5648 5631 5638 5638 5645 5635 5638 5642 5645 5639 5626 5624 5644 5673 5670 5672 5672 5676 5677 5681 5681
5406 5409 5439 5429 5413 5438 5490 5545 5552 5563 5568 5577 5582 5591 5601 5607 5617 5627 5639 5653 5660 5660 5644 5656 5644 5631 5637 5648 5649 5652 5651 5647 5631 5628 5630 5624 5635 5676 5674 5669 5668 5671 5673 5676 5676
5404 5406 5414 5422 5418 5429 5503 5514 5532 5547 5560 5568 5576 5585 5593 5599 5603 5624 5634 5651 5653 5653 5649 5650 5636 5622 5626 5630 5635 5638 5646 5647 5643 5632 5628 5615 5633 5665 5666 5664 5666 5666 5670 5670 5669
5397 5400 5402 5409 5454 5465 5485 5496 5515 5535 5547 5561 5571 5578 5579 5588 5605 5611 5620 5630 5640 5648 5643 5644 5642 5634 5629 5640 5646 5632 5639 5641 5639 5624 5629 5633 5642 5660 5664 5665 5669 5669 5669 5666 5665
5397 5418 5442 5431 5434 5475 5473 5498 5506 5519 5542 5550 5561 5567 5573 5578 5589 5598 5611 5618 5622 5618 5636 5638 5629 5637 5644 5648 5647 5644 5645 5643 5634 5638 5629 5640 5645 5659 5662 5665 5668 5661 5657 5657 5657
5405 5432 5448 5449 5452 5473 5486 5490 5499 5520 5543 5550 5557 5566 5568 5569 5579 5584 5599 5611 5621 5617 5626 5634 5626 5635 5628 5639 5635 5632 5644 5643 5640 5643 5643 5642 5643 5660 5661 5655 5652 5650 5648 5646 5641
5412 5433 5450 5460 5453 5449 5476 5490 5504 5519 5533 5545 5551 5557 5556 5571 5571 5572 5584 5596 5605 5610 5614 5619 5623 5618 5620 5623 5620 5603 5629 5639 5639 5640 5640 5634 5650 5659 5653 5651 5649 5640 5637 5633 5628